Location: Enikep?du
(16.5133°N, 80.7066°E)
Time: 05:12:46
(UTC+00:00)

Cosmos 2181 Rocket - Pass Details

Date: 20 January 2020
Orbit: 953 x 1014 km, 82.9° (Epoch: 19 February)

Event Time Altitude Azimuth Distance (km) Brightness Sun altitude
Rises 00:03:10 0° 179° (S) 3,616 7.2 -15.8°
Reaches altitude 10° 00:05:38 10° 178° (S) 2,675 6.5 -15.3°
Maximum altitude 00:11:44 76° 93° (E) 989 4.2 -13.9°
Drops below altitude 10° 00:17:55 10° 8° (N) 2,709 6.2 -12.5°
Sets 00:20:26 0° 7° (N) 3,665 6.9 -11.9°
